Hutchinson, KS

2:28 AM CDT on June 25, 2017 (GMT -0500)
Hutchinson Municipal

Weather History for KHUT - April, 2014

Change the Weather History Date:

Tuesday, April 8, 2014

  Actual Average Record
Temperature  
Mean Temperature 52 °F -  
Max Temperature 68 °F 62 °F 84 °F (2001)
Min Temperature 36 °F 38 °F 16 °F (2007)
Degree Days  
Heating Degree Days 14    
Growing Degree Days 2 (Base 50)    
Moisture  
Dew Point 27 °F    
Average Humidity 46    
Maximum Humidity 82    
Minimum Humidity 17    
Precipitation  
Precipitation 0.00 in - - ()
Sea Level Pressure  
Sea Level Pressure 30.06 in    
Wind  
Wind Speed 14 mph (North)    
Max Wind Speed 25 mph    
Max Gust Speed 37 mph    
Visibility 10 miles    
Events      
Averages and records for this station are not official NWS values.
T = Trace of Precipitation, MM = Missing Value Source: NWS Daily Summary

Daily Weather History Graph

Daily Weather History Graph

Search for Another Location

Airport or City:

Trip Planner

Search our weather history database for the weather conditions in past years. The results will help you decide how hot, cold, wet, or windy it might be!

Date:

Astronomy

Apr. 08, 2014 Rise Set
Actual Time 7:06 AM CDT 8:01 PM CDT
Civil Twilight 6:39 AM CDT 8:27 PM CDT
Nautical Twilight 6:07 AM CDT 8:59 PM CDT
Astronomical Twilight 5:34 AM CDT 9:32 PM CDT
Moon 2:01 PM CDT (4/8) 3:14 AM CDT (4/8)
Length of Visible Light 13h 48m
Length of Day
12h 55m
Waxing Gibbous, 63% of the Moon is Illuminated
Apr 8
Waxing Gibbous
Apr 15
Full
Apr 22
Last Quarter
Apr 29
New
May 6
First Quarter

Hourly Weather History & Observations

Time (CDT) Temp. Windchill Dew Point Humidity Pressure Visibility Wind Dir Wind Speed Gust Speed Precip Events Conditions
12:52 AM 45.0 °F 37.6 °F 35.1 °F 68% 29.99 in 10.0 mi NNW 17.3 mph 24.2 mph N/A   Clear
1:52 AM 45.0 °F 37.9 °F 34.0 °F 65% 30.00 in 10.0 mi North 16.1 mph - N/A   Clear
2:52 AM 43.0 °F 36.0 °F 34.0 °F 71% 30.00 in 10.0 mi North 13.8 mph - N/A   Clear
3:52 AM 42.1 °F 35.2 °F 33.1 °F 70% 30.01 in 10.0 mi NNW 12.7 mph - N/A   Clear
4:52 AM 39.0 °F 32.8 °F 32.0 °F 76% 30.01 in 10.0 mi NW 9.2 mph - N/A   Clear
5:52 AM 37.0 °F 29.3 °F 32.0 °F 82% 30.04 in 10.0 mi NW 11.5 mph - N/A   Clear
6:52 AM 37.0 °F 29.8 °F 30.9 °F 79% 30.07 in 10.0 mi NW 10.4 mph - N/A   Clear
7:52 AM 39.9 °F 32.5 °F 33.1 °F 77% 30.10 in 10.0 mi NW 12.7 mph - N/A   Mostly Cloudy
8:52 AM 45.0 °F 38.5 °F 35.1 °F 68% 30.10 in 10.0 mi NW 13.8 mph 21.9 mph N/A   Overcast
9:52 AM 54.0 °F - 34.0 °F 47% 30.10 in 10.0 mi NNW 12.7 mph - N/A   Clear
10:52 AM 57.9 °F - 30.9 °F 36% 30.10 in 10.0 mi NNW 18.4 mph 27.6 mph N/A   Clear
11:52 AM 60.1 °F - 30.0 °F 32% 30.10 in 10.0 mi NNW 17.3 mph - N/A   Clear
12:52 PM 63.0 °F - 26.1 °F 25% 30.08 in 10.0 mi North 25.3 mph 36.8 mph N/A   Scattered Clouds
1:52 PM 64.0 °F - 25.0 °F 23% 30.07 in 10.0 mi North 17.3 mph 31.1 mph N/A   Partly Cloudy
2:52 PM 66.0 °F - 24.1 °F 20% 30.05 in 10.0 mi North 18.4 mph 35.7 mph N/A   Clear
3:52 PM 66.0 °F - 21.9 °F 19% 30.04 in 10.0 mi NNE 17.3 mph 25.3 mph N/A   Clear
4:52 PM 66.0 °F - 19.9 °F 17% 30.05 in 10.0 mi North 13.8 mph 24.2 mph N/A   Clear
5:52 PM 66.0 °F - 19.0 °F 17% 30.05 in 10.0 mi North 12.7 mph 24.2 mph N/A   Clear
6:52 PM 63.0 °F - 18.0 °F 18% 30.07 in 10.0 mi North 12.7 mph - N/A   Clear
7:52 PM 57.9 °F - 19.0 °F 22% 30.09 in 10.0 mi North 5.8 mph - N/A   Clear
8:52 PM 53.1 °F - 19.9 °F 27% 30.10 in 10.0 mi NE 4.6 mph - N/A   Clear
9:52 PM 46.0 °F 43.1 °F 21.0 °F 37% 30.11 in 10.0 mi East 5.8 mph - N/A   Clear
10:52 PM 42.1 °F - 21.0 °F 43% 30.11 in 10.0 mi Calm Calm - N/A   Clear
11:52 PM 36.0 °F - 21.0 °F 55% 30.11 in 10.0 mi Calm Calm - N/A   Clear